Overview Statistics Trail Chart Weather Telemetry Raw packets
 

This is the latest recevied weather packets stored in our database for station/object W5ALL-WX. If no packets are shown the sender has not sent any weather packets the latest 10 day(s).

<< 19 20 21 22 23 24 25 >>
Time Temp. Humidity Pressure Rain* Wind** Luminosity Snow
1777891401 13.89° C 67% 1013.3 hPa 0 mm - - -
1777891101 14.44° C 66% 1013.3 hPa 0 mm - - -
1777890801 14.44° C 65% 1013.2 hPa 0 mm - - -
1777890501 14.44° C 66% 1013.2 hPa 0 mm - - -
1777890201 15° C 64% 1013.2 hPa 0 mm - - -
1777889901 15° C 63% 1013.2 hPa 0 mm - - -
1777889601 15.56° C 62% 1012.9 hPa 0 mm - - -
1777889301 15.56° C 61% 1012.9 hPa 0 mm - - -
1777889001 15.56° C 60% 1012.8 hPa 0 mm - - -
1777888701 16.11° C 59% 1012.6 hPa 0 mm - - -
1777888289 15.56° C 59% 1012.5 hPa 0 mm - - -
1777887989 15.56° C 60% 1012.5 hPa 0 mm - - -
1777887689 14.44° C 65% 1012.4 hPa 0 mm - - -
1777887389 14.44° C 65% 1012.4 hPa 0 mm - - -
1777887089 14.44° C 65% 1012.5 hPa 0 mm - - -
1777886789 14.44° C 65% 1012.5 hPa 0 mm - - -
1777886489 13.89° C 66% 1012.6 hPa 0 mm - - -
1777886189 13.89° C 67% 1012.7 hPa 0 mm - - -
1777885889 13.89° C 68% 1012.8 hPa 0 mm - - -
1777885589 13.89° C 68% 1012.7 hPa 0 mm - - -
1777885289 13.89° C 66% 1012.6 hPa 0 mm - - -
1777884989 14.44° C 63% 1012.7 hPa 0 mm - - -
1777884689 15° C 62% 1012.6 hPa 0 mm - - -
1777884389 15° C 60% 1012.7 hPa 0 mm - - -
1777884089 15° C 59% 1012.8 hPa 0 mm - - -

* Rain latest hour (hover to see other rain measurements)
** Current wind speed in m/s (hover to see current wind gust speed)